Time,TemperatureF,DewpointF,PressureIn,WindDirection,WindDirectionDegrees,WindSpeedMPH,WindSpeedGustMPH,Humidity,HourlyPrecipIn,Conditions,Clouds,dailyrainin,SoftwareType,DateUTC
2013-05-02 00:01:00,69.7,60.9,29.75,ESE,113,0.0,0.0,74,0.00,,,0.00,WUHU216HW,2013-05-02 05:01:00,
2013-05-02 00:06:00,69.5,60.8,29.76,ESE,113,0.0,0.0,74,0.00,,,0.00,WUHU216HW,2013-05-02 05:06:00,
2013-05-02 00:11:00,69.3,60.6,29.76,ESE,113,0.0,0.0,74,0.00,,,0.00,WUHU216HW,2013-05-02 05:11:00,
2013-05-02 00:16:00,69.1,60.9,29.76,ESE,113,0.0,0.0,75,0.00,,,0.00,WUHU216HW,2013-05-02 05:16:00,
2013-05-02 00:21:00,68.9,61.0,29.77,ESE,113,0.0,0.9,76,0.00,,,0.00,WUHU216HW,2013-05-02 05:21:00,
2013-05-02 00:26:00,68.8,60.8,29.76,ESE,113,0.0,0.9,76,0.00,,,0.00,WUHU216HW,2013-05-02 05:26:00,
2013-05-02 00:31:00,68.6,60.8,29.77,ESE,113,0.0,0.0,76,0.00,,,0.00,WUHU216HW,2013-05-02 05:31:00,
2013-05-02 00:36:00,68.6,61.1,29.77,ESE,113,0.0,0.0,77,0.00,,,0.00,WUHU216HW,2013-05-02 05:36:00,
2013-05-02 00:41:00,68.4,60.9,29.78,ESE,113,0.0,0.0,77,0.00,,,0.00,WUHU216HW,2013-05-02 05:41:00,
2013-05-02 00:46:00,68.4,60.9,29.77,ESE,113,0.9,0.9,77,0.00,,,0.00,WUHU216HW,2013-05-02 05:46:00,
2013-05-02 00:51:00,68.4,60.9,29.76,ESE,113,1.1,1.1,77,0.00,,,0.00,WUHU216HW,2013-05-02 05:51:00,
2013-05-02 00:56:00,68.4,60.9,29.76,ESE,113,0.9,1.1,77,0.00,,,0.00,WUHU216HW,2013-05-02 05:56:00,
2013-05-02 01:01:00,68.4,61.3,29.76,ESE,113,0.0,1.1,78,0.00,,,0.00,WUHU216HW,2013-05-02 06:01:00,
2013-05-02 01:06:00,68.4,61.3,29.76,ESE,113,0.9,1.1,78,0.00,,,0.00,WUHU216HW,2013-05-02 06:06:00,
2013-05-02 01:11:00,68.4,61.3,29.76,WSW,248,3.8,3.8,78,0.00,,,0.00,WUHU216HW,2013-05-02 06:11:00,
2013-05-02 01:16:00,68.4,61.7,29.79,West,270,12.8,12.8,79,0.00,,,0.00,WUHU216HW,2013-05-02 06:16:00,
2013-05-02 01:21:00,68.9,60.3,29.79,WNW,293,8.9,12.8,74,0.00,,,0.00,WUHU216HW,2013-05-02 06:21:00,
2013-05-02 01:26:00,69.1,58.5,29.80,West,270,7.2,11.4,69,0.00,,,0.00,WUHU216HW,2013-05-02 06:26:00,
2013-05-02 01:31:00,68.9,58.0,29.81,WSW,248,7.2,11.4,68,0.00,,,0.00,WUHU216HW,2013-05-02 06:31:00,
2013-05-02 01:36:00,68.8,57.8,29.81,NNW,338,1.8,13.0,68,0.00,,,0.00,WUHU216HW,2013-05-02 06:36:00,
2013-05-02 01:41:00,68.4,58.3,29.81,West,270,1.8,13.0,70,0.00,,,0.00,WUHU216HW,2013-05-02 06:41:00,
2013-05-02 01:46:00,68.0,58.0,29.81,WSW,248,4.7,9.8,70,0.00,,,0.00,WUHU216HW,2013-05-02 06:46:00,
2013-05-02 01:51:00,67.7,58.0,29.80,WSW,248,5.8,6.5,71,0.00,,,0.00,WUHU216HW,2013-05-02 06:51:00,
2013-05-02 01:56:00,67.5,58.1,29.79,WSW,248,2.7,5.8,72,0.00,,,0.00,WUHU216HW,2013-05-02 06:56:00,
2013-05-02 02:01:00,67.3,58.0,29.78,WSW,248,1.1,5.8,72,0.00,,,0.00,WUHU216HW,2013-05-02 07:01:00,
2013-05-02 02:06:00,67.3,58.0,29.78,West,270,2.7,3.1,72,0.00,,,0.00,WUHU216HW,2013-05-02 07:06:00,
2013-05-02 02:11:00,67.3,58.0,29.77,WSW,248,0.4,2.7,72,0.00,,,0.00,WUHU216HW,2013-05-02 07:11:00,
2013-05-02 02:16:00,67.1,58.2,29.78,WSW,248,1.3,1.6,73,0.00,,,0.00,WUHU216HW,2013-05-02 07:16:00,
2013-05-02 02:21:00,67.1,58.2,29.77,SW,225,1.6,2.7,73,0.00,,,0.00,WUHU216HW,2013-05-02 07:21:00,
2013-05-02 02:26:00,67.0,58.4,29.76,ESE,113,1.3,3.1,74,0.00,,,0.00,WUHU216HW,2013-05-02 07:26:00,
2013-05-02 02:31:00,66.6,58.1,29.76,East,90,0.7,3.1,74,0.00,,,0.00,WUHU216HW,2013-05-02 07:31:00,
2013-05-02 02:36:00,66.6,58.1,29.75,ESE,113,0.0,1.8,74,0.00,,,0.00,WUHU216HW,2013-05-02 07:36:00,
2013-05-02 02:41:00,66.4,57.9,29.74,SSE,158,0.4,1.8,74,0.00,,,0.00,WUHU216HW,2013-05-02 07:41:00,
2013-05-02 02:46:00,66.2,58.1,29.73,SSE,158,1.8,2.9,75,0.00,,,0.00,WUHU216HW,2013-05-02 07:46:00,
2013-05-02 02:51:00,65.9,57.7,29.72,SSE,158,0.4,2.9,75,0.00,,,0.00,WUHU216HW,2013-05-02 07:51:00,
2013-05-02 02:56:00,65.7,57.5,29.72,SSW,203,1.6,1.8,75,0.00,,,0.00,WUHU216HW,2013-05-02 07:56:00,
2013-05-02 03:01:00,65.5,57.8,29.72,SE,135,1.6,1.6,76,0.00,,,0.00,WUHU216HW,2013-05-02 08:01:00,
2013-05-02 03:06:00,65.2,57.8,29.72,ENE,68,0.7,1.8,77,0.00,,,0.00,WUHU216HW,2013-05-02 08:06:00,
2013-05-02 03:11:00,65.2,57.8,29.72,ENE,68,0.2,1.8,77,0.00,,,0.00,WUHU216HW,2013-05-02 08:11:00,
2013-05-02 03:16:00,64.8,57.4,29.72,ESE,113,1.1,2.5,77,0.00,,,0.00,WUHU216HW,2013-05-02 08:16:00,
2013-05-02 03:21:00,64.8,57.4,29.73,ESE,113,0.0,2.5,77,0.00,,,0.00,WUHU216HW,2013-05-02 08:21:00,
2013-05-02 03:26:00,64.6,57.3,29.74,ESE,113,0.0,0.4,77,0.00,,,0.00,WUHU216HW,2013-05-02 08:26:00,
2013-05-02 03:31:00,64.4,57.1,29.76,WSW,248,1.3,1.3,77,0.00,,,0.00,WUHU216HW,2013-05-02 08:31:00,
2013-05-02 03:36:00,64.3,56.9,29.77,WSW,248,0.4,1.6,77,0.00,,,0.00,WUHU216HW,2013-05-02 08:36:00,
2013-05-02 03:41:00,64.1,57.1,29.78,SW,225,0.9,2.0,78,0.00,,,0.00,WUHU216HW,2013-05-02 08:41:00,
2013-05-02 03:46:00,64.1,57.4,29.78,SW,225,0.0,2.0,79,0.00,,,0.00,WUHU216HW,2013-05-02 08:46:00,
2013-05-02 03:51:00,63.7,57.1,29.78,SW,225,0.0,1.1,79,0.00,,,0.00,WUHU216HW,2013-05-02 08:51:00,
2013-05-02 03:56:00,63.5,56.9,29.79,SW,225,0.0,0.7,79,0.00,,,0.00,WUHU216HW,2013-05-02 08:56:00,
2013-05-02 04:01:00,63.4,56.7,29.78,SE,135,1.1,1.8,79,0.00,,,0.00,WUHU216HW,2013-05-02 09:01:00,
2013-05-02 04:06:00,63.2,56.5,29.78,SE,135,1.1,1.8,79,0.00,,,0.00,WUHU216HW,2013-05-02 09:06:00,
2013-05-02 04:11:00,63.2,56.9,29.77,SE,135,0.7,1.8,80,0.00,,,0.00,WUHU216HW,2013-05-02 09:11:00,
2013-05-02 04:16:00,63.0,56.7,29.77,SE,135,0.4,1.8,80,0.00,,,0.00,WUHU216HW,2013-05-02 09:16:00,
2013-05-02 04:21:00,63.0,56.3,29.77,SE,135,0.0,1.1,79,0.00,,,0.00,WUHU216HW,2013-05-02 09:21:00,
2013-05-02 04:26:00,62.8,56.2,29.77,SE,135,0.0,1.1,79,0.00,,,0.00,WUHU216HW,2013-05-02 09:26:00,
2013-05-02 04:31:00,62.6,56.3,29.77,SE,135,0.0,0.0,80,0.00,,,0.00,WUHU216HW,2013-05-02 09:31:00,
2013-05-02 04:36:00,62.3,56.0,29.77,SE,135,1.1,1.1,80,0.00,,,0.00,WUHU216HW,2013-05-02 09:36:00,
2013-05-02 04:41:00,62.3,56.0,29.77,SE,135,0.0,1.1,80,0.00,,,0.00,WUHU216HW,2013-05-02 09:41:00,
2013-05-02 04:46:00,62.1,56.2,29.77,SE,135,0.4,0.4,81,0.00,,,0.00,WUHU216HW,2013-05-02 09:46:00,
2013-05-02 04:51:00,61.9,56.1,29.77,South,180,0.2,1.8,81,0.00,,,0.00,WUHU216HW,2013-05-02 09:51:00,
2013-05-02 04:56:00,61.9,56.1,29.77,South,180,0.0,1.8,81,0.00,,,0.00,WUHU216HW,2013-05-02 09:56:00,
2013-05-02 05:01:00,61.7,55.9,29.78,SSW,203,1.3,1.3,81,0.00,,,0.00,WUHU216HW,2013-05-02 10:01:00,
2013-05-02 05:06:00,61.7,55.9,29.77,SSW,203,0.0,1.3,81,0.00,,,0.00,WUHU216HW,2013-05-02 10:06:00,
2013-05-02 05:11:00,61.7,56.2,29.77,SSW,203,1.3,1.3,82,0.00,,,0.00,WUHU216HW,2013-05-02 10:11:00,
2013-05-02 05:16:00,61.7,56.2,29.78,WSW,248,1.6,1.8,82,0.00,,,0.00,WUHU216HW,2013-05-02 10:16:00,
2013-05-02 05:21:00,61.7,56.5,29.78,West,270,1.1,2.2,83,0.00,,,0.00,WUHU216HW,2013-05-02 10:21:00,
2013-05-02 05:26:00,61.7,56.5,29.78,WNW,293,1.3,2.7,83,0.00,,,0.00,WUHU216HW,2013-05-02 10:26:00,
2013-05-02 05:31:00,61.9,56.7,29.79,West,270,0.7,2.7,83,0.00,,,0.00,WUHU216HW,2013-05-02 10:31:00,
2013-05-02 05:36:00,62.3,57.1,29.79,NW,315,0.9,1.6,83,0.00,,,0.00,WUHU216HW,2013-05-02 10:36:00,
2013-05-02 05:41:00,63.0,57.7,29.79,West,270,0.4,1.8,83,0.00,,,0.00,WUHU216HW,2013-05-02 10:41:00,
2013-05-02 05:46:00,63.7,58.4,29.79,WNW,293,1.8,2.7,83,0.00,,,0.00,WUHU216HW,2013-05-02 10:46:00,
2013-05-02 05:51:00,64.3,59.0,29.79,NW,315,1.6,3.1,83,0.00,,,0.00,WUHU216HW,2013-05-02 10:51:00,
2013-05-02 05:56:00,64.6,59.1,29.79,NE,45,3.4,3.4,82,0.00,,,0.00,WUHU216HW,2013-05-02 10:56:00,
2013-05-02 06:01:00,65.0,59.7,29.80,ENE,68,1.1,3.4,83,0.00,,,0.00,WUHU216HW,2013-05-02 11:01:00,
2013-05-02 06:06:00,65.2,58.9,29.81,WNW,293,7.4,7.4,80,0.00,,,0.00,WUHU216HW,2013-05-02 11:06:00,
2013-05-02 06:11:00,64.4,57.1,29.81,NE,45,2.0,7.4,77,0.00,,,0.00,WUHU216HW,2013-05-02 11:11:00,
2013-05-02 06:16:00,63.7,55.6,29.81,WSW,248,1.8,6.3,75,0.00,,,0.00,WUHU216HW,2013-05-02 11:16:00,
2013-05-02 06:21:00,63.0,54.9,29.82,NNW,338,4.9,7.6,75,0.00,,,0.00,WUHU216HW,2013-05-02 11:21:00,
2013-05-02 06:26:00,62.3,53.8,29.82,NW,315,3.4,7.6,74,0.00,,,0.00,WUHU216HW,2013-05-02 11:26:00,
2013-05-02 06:31:00,61.7,53.0,29.83,NW,315,2.5,6.5,73,0.00,,,0.00,WUHU216HW,2013-05-02 11:31:00,
2013-05-02 06:36:00,61.0,52.0,29.84,NW,315,3.8,6.5,72,0.00,,,0.00,WUHU216HW,2013-05-02 11:36:00,
2013-05-02 06:41:00,60.3,51.3,29.85,ENE,68,3.1,6.9,72,0.00,,,0.00,WUHU216HW,2013-05-02 11:41:00,
2013-05-02 06:46:00,59.8,50.8,29.85,WSW,248,3.4,6.9,72,0.00,,,0.00,WUHU216HW,2013-05-02 11:46:00,
2013-05-02 06:51:00,59.4,50.4,29.86,NW,315,6.3,6.3,72,0.00,,,0.00,WUHU216HW,2013-05-02 11:51:00,
2013-05-02 06:56:00,58.7,49.3,29.86,NE,45,3.1,6.3,71,0.00,,,0.00,WUHU216HW,2013-05-02 11:56:00,
2013-05-02 07:01:00,58.0,48.6,29.87,North,0,5.6,6.3,71,0.00,,,0.00,WUHU216HW,2013-05-02 12:01:00,
2013-05-02 07:06:00,57.4,48.4,29.87,NNW,338,2.5,8.1,72,0.00,,,0.00,WUHU216HW,2013-05-02 12:06:00,
2013-05-02 07:11:00,57.2,48.2,29.87,NNW,338,8.9,8.9,72,0.00,,,0.00,WUHU216HW,2013-05-02 12:11:00,
2013-05-02 07:16:00,57.1,48.1,29.87,NNE,23,2.5,10.3,72,0.00,,,0.00,WUHU216HW,2013-05-02 12:16:00,
2013-05-02 07:21:00,56.9,47.9,29.89,ENE,68,4.5,10.3,72,0.00,,,0.00,WUHU216HW,2013-05-02 12:21:00,
2013-05-02 07:26:00,56.5,47.6,29.89,ENE,68,3.4,8.3,72,0.00,,,0.00,WUHU216HW,2013-05-02 12:26:00,
2013-05-02 07:31:00,56.3,47.1,29.89,SSW,203,2.0,8.3,71,0.00,,,0.00,WUHU216HW,2013-05-02 12:31:00,
2013-05-02 07:36:00,56.0,47.1,29.89,NW,315,3.4,6.3,72,0.00,,,0.00,WUHU216HW,2013-05-02 12:36:00,
2013-05-02 07:41:00,55.4,46.6,29.90,North,0,4.0,5.8,72,0.00,,,0.00,WUHU216HW,2013-05-02 12:41:00,
2013-05-02 07:46:00,54.9,46.1,29.90,WNW,293,1.6,6.3,72,0.00,,,0.00,WUHU216HW,2013-05-02 12:46:00,
2013-05-02 07:51:00,54.5,46.1,29.90,ENE,68,3.6,6.3,73,0.00,,,0.00,WUHU216HW,2013-05-02 12:51:00,
2013-05-02 07:56:00,54.4,45.9,29.91,NNW,338,4.0,6.7,73,0.00,,,0.00,WUHU216HW,2013-05-02 12:56:00,
2013-05-02 08:01:00,54.4,45.9,29.91,West,270,2.7,6.7,73,0.00,,,0.00,WUHU216HW,2013-05-02 13:01:00,
2013-05-02 08:06:00,54.2,45.7,29.91,NW,315,5.8,6.3,73,0.00,,,0.00,WUHU216HW,2013-05-02 13:06:00,
2013-05-02 08:11:00,54.0,45.6,29.91,NNW,338,3.4,6.3,73,0.00,,,0.00,WUHU216HW,2013-05-02 13:11:00,
2013-05-02 08:16:00,53.8,45.4,29.92,NNE,23,4.3,5.4,73,0.00,,,0.00,WUHU216HW,2013-05-02 13:16:00,
2013-05-02 08:21:00,53.6,45.2,29.92,North,0,5.4,5.4,73,0.00,,,0.00,WUHU216HW,2013-05-02 13:21:00,
2013-05-02 08:26:00,53.8,45.7,29.92,ESE,113,2.5,5.4,74,0.00,,,0.00,WUHU216HW,2013-05-02 13:26:00,
2013-05-02 08:31:00,54.0,45.6,29.92,North,0,4.0,4.0,73,0.00,,,0.00,WUHU216HW,2013-05-02 13:31:00,
2013-05-02 08:36:00,54.2,45.7,29.92,WSW,248,4.3,7.2,73,0.00,,,0.00,WUHU216HW,2013-05-02 13:36:00,
2013-05-02 08:41:00,54.0,45.6,29.92,North,0,3.1,7.2,73,0.00,,,0.00,WUHU216HW,2013-05-02 13:41:00,
2013-05-02 08:46:00,54.0,45.6,29.93,NNW,338,4.9,4.9,73,0.00,,,0.00,WUHU216HW,2013-05-02 13:46:00,
2013-05-02 08:51:00,53.6,45.2,29.93,NW,315,6.0,7.6,73,0.00,,,0.00,WUHU216HW,2013-05-02 13:51:00,
2013-05-02 08:56:00,53.3,44.5,29.93,WSW,248,2.7,9.8,72,0.00,,,0.00,WUHU216HW,2013-05-02 13:56:00,
2013-05-02 09:01:00,52.9,44.2,29.93,NNW,338,5.4,9.8,72,0.00,,,0.00,WUHU216HW,2013-05-02 14:01:00,
2013-05-02 09:06:00,52.6,44.2,29.94,NNE,23,5.1,9.8,73,0.00,,,0.00,WUHU216HW,2013-05-02 14:06:00,
2013-05-02 09:11:00,52.2,43.8,29.94,NW,315,4.7,7.8,73,0.00,,,0.00,WUHU216HW,2013-05-02 14:11:00,
2013-05-02 09:16:00,52.0,44.0,29.94,NW,315,6.9,7.8,74,0.00,,,0.00,WUHU216HW,2013-05-02 14:16:00,
2013-05-02 09:21:00,51.7,43.7,29.94,NE,45,2.7,6.9,74,0.00,,,0.00,WUHU216HW,2013-05-02 14:21:00,
2013-05-02 09:26:00,51.5,43.5,29.95,WSW,248,5.1,6.3,74,0.00,,,0.00,WUHU216HW,2013-05-02 14:26:00,
2013-05-02 09:31:00,51.1,43.1,29.95,SSW,203,2.0,6.3,74,0.00,,,0.00,WUHU216HW,2013-05-02 14:31:00,
2013-05-02 09:36:00,51.1,43.5,29.96,North,0,3.1,6.3,75,0.00,,,0.00,WUHU216HW,2013-05-02 14:36:00,
2013-05-02 09:41:00,51.1,43.5,29.96,NNE,23,2.2,6.0,75,0.00,,,0.00,WUHU216HW,2013-05-02 14:41:00,
2013-05-02 09:46:00,50.9,42.9,29.96,North,0,8.1,8.1,74,0.00,,,0.00,WUHU216HW,2013-05-02 14:46:00,
2013-05-02 09:51:00,50.6,42.6,29.96,NNE,23,8.7,8.7,74,0.00,,,0.00,WUHU216HW,2013-05-02 14:51:00,
2013-05-02 09:56:00,50.4,42.4,29.96,WSW,248,2.9,8.7,74,0.00,,,0.00,WUHU216HW,2013-05-02 14:56:00,
2013-05-02 10:01:00,50.4,42.8,29.97,North,0,6.9,8.7,75,0.00,,,0.00,WUHU216HW,2013-05-02 15:01:00,
2013-05-02 10:06:00,50.8,42.8,29.97,SW,225,2.2,6.9,74,0.00,,,0.00,WUHU216HW,2013-05-02 15:06:00,
2013-05-02 10:11:00,50.9,42.9,29.97,North,0,4.0,5.8,74,0.00,,,0.00,WUHU216HW,2013-05-02 15:11:00,
2013-05-02 10:16:00,51.1,42.8,29.98,WSW,248,5.4,5.8,73,0.00,,,0.00,WUHU216HW,2013-05-02 15:16:00,
2013-05-02 10:21:00,50.9,42.3,29.98,NNW,338,9.6,9.6,72,0.00,,,0.00,WUHU216HW,2013-05-02 15:21:00,
2013-05-02 10:26:00,50.8,42.1,29.99,SW,225,4.3,9.6,72,0.00,,,0.00,WUHU216HW,2013-05-02 15:26:00,
2013-05-02 10:31:00,50.8,42.4,29.99,NNW,338,6.3,6.3,73,0.00,,,0.00,WUHU216HW,2013-05-02 15:31:00,
2013-05-02 10:36:00,50.8,42.4,29.99,West,270,3.8,6.3,73,0.00,,,0.00,WUHU216HW,2013-05-02 15:36:00,
2013-05-02 10:41:00,50.9,42.3,29.99,NNE,23,4.0,6.5,72,0.00,,,0.00,WUHU216HW,2013-05-02 15:41:00,
2013-05-02 10:46:00,50.9,42.3,30.00,WNW,293,2.9,6.5,72,0.00,,,0.00,WUHU216HW,2013-05-02 15:46:00,
2013-05-02 10:51:00,50.9,42.3,30.01,WSW,248,4.7,5.4,72,0.00,,,0.00,WUHU216HW,2013-05-02 15:51:00,
2013-05-02 10:56:00,50.8,42.1,30.01,West,270,10.1,10.1,72,0.00,,,0.00,WUHU216HW,2013-05-02 15:56:00,
2013-05-02 11:01:00,50.6,42.0,30.02,NNW,338,5.4,10.1,72,0.00,,,0.00,WUHU216HW,2013-05-02 16:01:00,
2013-05-02 11:06:00,50.4,41.8,30.02,ESE,113,3.6,5.6,72,0.00,,,0.00,WUHU216HW,2013-05-02 16:06:00,
2013-05-02 11:11:00,50.4,41.8,30.02,NNW,338,5.6,5.6,72,0.00,,,0.00,WUHU216HW,2013-05-02 16:11:00,
2013-05-02 11:16:00,50.4,41.8,30.03,NW,315,4.3,5.6,72,0.00,,,0.00,WUHU216HW,2013-05-02 16:16:00,
2013-05-02 11:21:00,50.4,41.8,30.04,NW,315,3.4,6.0,72,0.00,,,0.00,WUHU216HW,2013-05-02 16:21:00,
2013-05-02 11:26:00,50.4,41.8,30.05,West,270,2.9,6.0,72,0.00,,,0.00,WUHU216HW,2013-05-02 16:26:00,
2013-05-02 11:31:00,50.4,42.0,30.05,WNW,293,7.8,7.8,73,0.00,,,0.00,WUHU216HW,2013-05-02 16:31:00,
2013-05-02 11:36:00,50.2,41.9,30.05,WSW,248,5.4,7.8,73,0.00,,,0.00,WUHU216HW,2013-05-02 16:36:00,
2013-05-02 11:41:00,50.0,41.7,30.06,WNW,293,4.0,5.4,73,0.00,,,0.00,WUHU216HW,2013-05-02 16:41:00,
2013-05-02 11:46:00,50.0,41.7,30.06,NNE,23,3.1,4.0,73,0.00,,,0.00,WUHU216HW,2013-05-02 16:46:00,
2013-05-02 11:51:00,50.4,42.0,30.06,WNW,293,3.4,4.0,73,0.00,,,0.00,WUHU216HW,2013-05-02 16:51:00,
2013-05-02 11:56:00,51.1,42.5,30.06,West,270,2.0,4.0,72,0.00,,,0.00,WUHU216HW,2013-05-02 16:56:00,
2013-05-02 12:01:00,52.0,43.0,30.06,SW,225,6.7,6.7,71,0.00,,,0.00,WUHU216HW,2013-05-02 17:01:00,
2013-05-02 12:06:00,52.7,43.7,30.07,NE,45,1.6,6.7,71,0.00,,,0.00,WUHU216HW,2013-05-02 17:06:00,
2013-05-02 12:11:00,52.9,43.5,30.08,WSW,248,2.2,5.1,70,0.00,,,0.00,WUHU216HW,2013-05-02 17:11:00,
2013-05-02 12:16:00,52.7,42.9,30.07,NW,315,2.5,4.7,69,0.00,,,0.00,WUHU216HW,2013-05-02 17:16:00,
2013-05-02 12:21:00,53.1,43.2,30.07,West,270,3.1,4.7,69,0.00,,,0.00,WUHU216HW,2013-05-02 17:21:00,
2013-05-02 12:26:00,53.1,43.2,30.07,WSW,248,2.2,5.1,69,0.00,,,0.00,WUHU216HW,2013-05-02 17:26:00,
2013-05-02 12:31:00,53.5,43.6,30.07,North,0,6.0,6.0,69,0.00,,,0.00,WUHU216HW,2013-05-02 17:31:00,
2013-05-02 12:36:00,53.8,43.9,30.07,NW,315,5.4,6.0,69,0.00,,,0.00,WUHU216HW,2013-05-02 17:36:00,
2013-05-02 12:41:00,53.8,43.1,30.07,SW,225,3.4,6.0,67,0.00,,,0.00,WUHU216HW,2013-05-02 17:41:00,
2013-05-02 12:46:00,54.0,43.3,30.07,NNW,338,2.9,4.3,67,0.00,,,0.00,WUHU216HW,2013-05-02 17:46:00,
2013-05-02 12:51:00,54.4,43.7,30.07,WNW,293,2.5,4.7,67,0.00,,,0.00,WUHU216HW,2013-05-02 17:51:00,
2013-05-02 12:56:00,54.4,43.7,30.07,NW,315,4.7,4.7,67,0.00,,,0.00,WUHU216HW,2013-05-02 17:56:00,
2013-05-02 13:01:00,54.4,43.7,30.07,West,270,2.5,4.9,67,0.00,,,0.00,WUHU216HW,2013-05-02 18:01:00,
2013-05-02 13:06:00,54.2,43.0,30.07,ESE,113,1.6,4.9,66,0.00,,,0.00,WUHU216HW,2013-05-02 18:06:00,
2013-05-02 13:11:00,54.2,43.5,30.07,North,0,1.3,4.9,67,0.00,,,0.00,WUHU216HW,2013-05-02 18:11:00,
2013-05-02 13:16:00,54.4,43.2,30.07,North,0,0.9,3.8,66,0.00,,,0.00,WUHU216HW,2013-05-02 18:16:00,
2013-05-02 13:21:00,54.4,43.2,30.07,WSW,248,3.8,3.8,66,0.00,,,0.00,WUHU216HW,2013-05-02 18:21:00,
2013-05-02 13:26:00,53.8,42.7,30.07,WSW,248,1.8,7.8,66,0.00,,,0.00,WUHU216HW,2013-05-02 18:26:00,
2013-05-02 13:31:00,53.6,42.9,30.07,NW,315,4.5,7.8,67,0.00,,,0.00,WUHU216HW,2013-05-02 18:31:00,
2013-05-02 13:36:00,53.6,42.5,30.07,WNW,293,2.5,4.7,66,0.00,,,0.00,WUHU216HW,2013-05-02 18:36:00,
2013-05-02 13:41:00,53.5,42.8,30.07,North,0,3.1,4.7,67,0.00,,,0.00,WUHU216HW,2013-05-02 18:41:00,
2013-05-02 13:46:00,53.6,42.9,30.07,NNW,338,1.1,3.1,67,0.00,,,0.00,WUHU216HW,2013-05-02 18:46:00,
2013-05-02 13:51:00,53.6,42.9,30.07,NW,315,3.6,6.9,67,0.00,,,0.00,WUHU216HW,2013-05-02 18:51:00,
2013-05-02 13:56:00,53.5,42.8,30.07,NW,315,1.1,6.9,67,0.00,,,0.00,WUHU216HW,2013-05-02 18:56:00,
2013-05-02 14:01:00,53.3,42.6,30.08,West,270,2.0,6.7,67,0.00,,,0.00,WUHU216HW,2013-05-02 19:01:00,
2013-05-02 14:06:00,52.9,42.2,30.07,NE,45,2.7,6.7,67,0.00,,,0.00,WUHU216HW,2013-05-02 19:06:00,
2013-05-02 14:11:00,52.9,42.2,30.07,NW,315,2.5,5.8,67,0.00,,,0.00,WUHU216HW,2013-05-02 19:11:00,
2013-05-02 14:16:00,52.7,42.5,30.07,East,90,2.5,5.8,68,0.00,,,0.00,WUHU216HW,2013-05-02 19:16:00,
2013-05-02 14:21:00,52.7,42.5,30.08,NW,315,5.4,5.8,68,0.00,,,0.00,WUHU216HW,2013-05-02 19:21:00,
2013-05-02 14:26:00,52.6,42.3,30.08,WNW,293,3.1,5.4,68,0.00,,,0.00,WUHU216HW,2013-05-02 19:26:00,
2013-05-02 14:31:00,52.4,42.1,30.08,NNW,338,4.9,5.6,68,0.00,,,0.00,WUHU216HW,2013-05-02 19:31:00,
2013-05-02 14:36:00,52.2,41.9,30.08,WSW,248,3.8,6.3,68,0.00,,,0.00,WUHU216HW,2013-05-02 19:36:00,
2013-05-02 14:41:00,51.8,41.7,30.08,West,270,2.5,6.3,68,0.00,,,0.00,WUHU216HW,2013-05-02 19:41:00,
2013-05-02 14:46:00,51.7,41.5,30.08,NW,315,2.9,6.0,68,0.00,,,0.00,WUHU216HW,2013-05-02 19:46:00,
2013-05-02 14:51:00,51.5,41.3,30.08,NNW,338,1.6,5.8,68,0.00,,,0.00,WUHU216HW,2013-05-02 19:51:00,
2013-05-02 14:56:00,51.7,41.5,30.08,West,270,6.0,6.0,68,0.00,,,0.00,WUHU216HW,2013-05-02 19:56:00,
2013-05-02 15:01:00,51.7,41.5,30.08,NNW,338,5.4,6.5,68,0.00,,,0.00,WUHU216HW,2013-05-02 20:01:00,
2013-05-02 15:06:00,51.7,41.5,30.08,NW,315,5.4,6.5,68,0.00,,,0.00,WUHU216HW,2013-05-02 20:06:00,
2013-05-02 15:11:00,51.5,41.3,30.08,SSW,203,1.8,5.4,68,0.00,,,0.00,WUHU216HW,2013-05-02 20:11:00,
2013-05-02 15:16:00,51.5,41.3,30.08,NW,315,4.7,8.1,68,0.00,,,0.00,WUHU216HW,2013-05-02 20:16:00,
2013-05-02 15:21:00,51.3,41.1,30.08,SE,135,3.1,8.1,68,0.00,,,0.00,WUHU216HW,2013-05-02 20:21:00,
2013-05-02 15:26:00,51.3,41.1,30.08,ENE,68,4.3,6.7,68,0.00,,,0.00,WUHU216HW,2013-05-02 20:26:00,
2013-05-02 15:31:00,51.5,41.3,30.08,NNW,338,1.8,7.2,68,0.00,,,0.00,WUHU216HW,2013-05-02 20:31:00,
2013-05-02 15:36:00,51.5,41.3,30.07,NNW,338,1.8,7.2,68,0.00,,,0.00,WUHU216HW,2013-05-02 20:36:00,
2013-05-02 15:41:00,51.3,41.1,30.07,WSW,248,4.9,5.1,68,0.00,,,0.00,WUHU216HW,2013-05-02 20:41:00,
2013-05-02 15:46:00,51.3,41.1,30.07,WNW,293,4.5,9.8,68,0.00,,,0.00,WUHU216HW,2013-05-02 20:46:00,
2013-05-02 15:51:00,51.5,40.9,30.07,NNE,23,6.5,9.8,67,0.00,,,0.00,WUHU216HW,2013-05-02 20:51:00,
2013-05-02 15:56:00,51.5,40.9,30.07,NNW,338,1.3,8.1,67,0.00,,,0.00,WUHU216HW,2013-05-02 20:56:00,
2013-05-02 16:01:00,51.5,41.3,30.07,NNE,23,4.7,6.9,68,0.00,,,0.00,WUHU216HW,2013-05-02 21:01:00,
2013-05-02 16:06:00,51.1,41.0,30.07,SW,225,2.9,6.7,68,0.00,,,0.00,WUHU216HW,2013-05-02 21:06:00,
2013-05-02 16:11:00,50.8,40.6,30.07,NE,45,4.0,6.7,68,0.00,,,0.00,WUHU216HW,2013-05-02 21:11:00,
2013-05-02 16:16:00,50.2,40.5,30.07,NE,45,4.7,6.9,69,0.00,,,0.00,WUHU216HW,2013-05-02 21:16:00,
2013-05-02 16:21:00,50.2,40.5,30.07,WSW,248,3.4,6.9,69,0.00,,,0.00,WUHU216HW,2013-05-02 21:21:00,
2013-05-02 16:26:00,50.2,40.5,30.07,NNW,338,5.8,5.8,69,0.00,,,0.00,WUHU216HW,2013-05-02 21:26:00,
2013-05-02 16:31:00,50.0,40.7,30.07,NW,315,3.1,5.8,70,0.00,,,0.00,WUHU216HW,2013-05-02 21:31:00,
2013-05-02 16:36:00,50.0,40.7,30.07,North,0,6.0,6.7,70,0.00,,,0.00,WUHU216HW,2013-05-02 21:36:00,
2013-05-02 16:41:00,49.7,40.3,30.07,NNE,23,4.3,6.7,70,0.00,,,0.00,WUHU216HW,2013-05-02 21:41:00,
2013-05-02 16:46:00,49.3,40.0,30.07,NNW,338,4.0,6.3,70,0.00,,,0.00,WUHU216HW,2013-05-02 21:46:00,
2013-05-02 16:51:00,49.1,39.8,30.07,NE,45,4.5,9.2,70,0.00,,,0.00,WUHU216HW,2013-05-02 21:51:00,
2013-05-02 16:56:00,49.0,40.0,30.07,SW,225,2.9,10.5,71,0.00,,,0.00,WUHU216HW,2013-05-02 21:56:00,
2013-05-02 17:01:00,48.8,39.8,30.07,NW,315,4.7,10.5,71,0.00,,,0.00,WUHU216HW,2013-05-02 22:01:00,
2013-05-02 17:06:00,48.8,39.8,30.07,North,0,4.0,9.6,71,0.00,,,0.00,WUHU216HW,2013-05-02 22:06:00,
2013-05-02 17:11:00,48.8,40.2,30.07,West,270,4.7,9.6,72,0.00,,,0.00,WUHU216HW,2013-05-02 22:11:00,
2013-05-02 17:16:00,49.0,40.3,30.07,West,270,1.6,6.9,72,0.00,,,0.00,WUHU216HW,2013-05-02 22:16:00,
2013-05-02 17:21:00,49.0,40.3,30.07,NNE,23,1.3,4.7,72,0.00,,,0.00,WUHU216HW,2013-05-02 22:21:00,
2013-05-02 17:26:00,49.0,40.3,30.07,West,270,3.8,4.7,72,0.00,,,0.00,WUHU216HW,2013-05-02 22:26:00,
2013-05-02 17:31:00,49.0,40.0,30.07,West,270,3.4,6.9,71,0.00,,,0.00,WUHU216HW,2013-05-02 22:31:00,
2013-05-02 17:36:00,49.0,39.6,30.07,NNW,338,1.1,7.4,70,0.00,,,0.00,WUHU216HW,2013-05-02 22:36:00,
2013-05-02 17:41:00,48.8,39.4,30.07,North,0,2.9,7.4,70,0.00,,,0.00,WUHU216HW,2013-05-02 22:41:00,
2013-05-02 17:46:00,48.6,39.2,30.07,North,0,3.4,5.8,70,0.00,,,0.00,WUHU216HW,2013-05-02 22:46:00,
2013-05-02 17:51:00,48.6,39.2,30.07,WSW,248,3.6,3.6,70,0.00,,,0.00,WUHU216HW,2013-05-02 22:51:00,
2013-05-02 17:56:00,48.4,39.1,30.07,NNW,338,6.9,6.9,70,0.00,,,0.00,WUHU216HW,2013-05-02 22:56:00,
2013-05-02 18:01:00,48.1,38.7,30.07,NW,315,2.9,6.9,70,0.00,,,0.00,WUHU216HW,2013-05-02 23:01:00,
2013-05-02 18:06:00,47.7,38.7,30.08,NW,315,2.9,10.3,71,0.00,,,0.00,WUHU216HW,2013-05-02 23:06:00,
2013-05-02 18:11:00,47.5,38.9,30.08,WSW,248,3.8,10.3,72,0.00,,,0.00,WUHU216HW,2013-05-02 23:11:00,
2013-05-02 18:16:00,47.5,38.9,30.08,WNW,293,7.4,7.6,72,0.00,,,0.00,WUHU216HW,2013-05-02 23:16:00,
2013-05-02 18:21:00,47.2,38.3,30.08,NE,45,3.4,7.6,71,0.00,,,0.00,WUHU216HW,2013-05-02 23:21:00,
2013-05-02 18:26:00,47.2,38.6,30.08,WSW,248,0.9,7.4,72,0.00,,,0.00,WUHU216HW,2013-05-02 23:26:00,
2013-05-02 18:31:00,47.3,38.8,30.08,North,0,5.6,5.6,72,0.00,,,0.00,WUHU216HW,2013-05-02 23:31:00,
2013-05-02 18:36:00,47.2,38.6,30.08,NE,45,2.5,5.6,72,0.00,,,0.00,WUHU216HW,2013-05-02 23:36:00,
2013-05-02 18:41:00,46.6,38.1,30.08,WSW,248,4.7,6.0,72,0.00,,,0.00,WUHU216HW,2013-05-02 23:41:00,
2013-05-02 18:46:00,46.4,38.3,30.08,South,180,1.6,6.0,73,0.00,,,0.00,WUHU216HW,2013-05-02 23:46:00,
2013-05-02 18:51:00,46.4,38.3,30.08,SW,225,2.5,5.4,73,0.00,,,0.00,WUHU216HW,2013-05-02 23:51:00,
2013-05-02 18:56:00,46.4,38.6,30.08,NE,45,1.1,6.9,74,0.00,,,0.00,WUHU216HW,2013-05-02 23:56:00,
2013-05-02 19:01:00,46.4,38.6,30.08,WSW,248,2.5,7.6,74,0.00,,,0.00,WUHU216HW,2013-05-03 00:01:00,
2013-05-02 19:06:00,46.3,38.4,30.09,NW,315,2.5,7.6,74,0.00,,,0.00,WUHU216HW,2013-05-03 00:06:00,
2013-05-02 19:11:00,46.3,38.4,30.09,WSW,248,3.1,5.4,74,0.00,,,0.00,WUHU216HW,2013-05-03 00:11:00,
2013-05-02 19:16:00,46.3,38.4,30.09,North,0,2.7,6.9,74,0.00,,,0.00,WUHU216HW,2013-05-03 00:16:00,
2013-05-02 19:21:00,46.1,37.9,30.09,East,90,1.8,7.4,73,0.00,,,0.00,WUHU216HW,2013-05-03 00:21:00,
2013-05-02 19:26:00,46.1,37.9,30.09,NE,45,4.0,7.4,73,0.00,,,0.00,WUHU216HW,2013-05-03 00:26:00,
2013-05-02 19:31:00,46.1,37.9,30.09,ESE,113,2.0,6.0,73,0.00,,,0.00,WUHU216HW,2013-05-03 00:31:00,
2013-05-02 19:35:00,46.1,37.6,30.09,ENE,68,6.3,6.3,72,0.00,,,0.00,WUHU216HW,2013-05-03 00:35:00,
2013-05-02 19:40:00,46.1,37.6,30.10,SSE,158,5.6,8.3,72,0.00,,,0.00,WUHU216HW,2013-05-03 00:40:00,
2013-05-02 19:46:00,46.1,37.6,30.10,NW,315,4.0,8.3,72,0.00,,,0.00,WUHU216HW,2013-05-03 00:46:00,
2013-05-02 19:50:00,46.1,37.6,30.10,ENE,68,0.9,7.4,72,0.00,,,0.00,WUHU216HW,2013-05-03 00:50:00,
2013-05-02 19:56:00,46.1,37.3,30.10,West,270,3.1,7.6,71,0.00,,,0.00,WUHU216HW,2013-05-03 00:56:00,
2013-05-02 20:01:00,46.1,37.3,30.10,WNW,293,4.5,7.6,71,0.00,,,0.00,WUHU216HW,2013-05-03 01:01:00,
2013-05-02 20:05:00,46.1,37.3,30.10,NNW,338,7.4,7.4,71,0.00,,,0.00,WUHU216HW,2013-05-03 01:05:00,
2013-05-02 20:10:00,46.1,37.3,30.10,NNE,23,4.9,7.4,71,0.00,,,0.00,WUHU216HW,2013-05-03 01:10:00,
2013-05-02 20:15:00,46.1,37.3,30.10,North,0,4.5,6.3,71,0.00,,,0.00,WUHU216HW,2013-05-03 01:15:00,
2013-05-02 20:20:00,46.1,37.3,30.10,WSW,248,2.9,5.4,71,0.00,,,0.00,WUHU216HW,2013-05-03 01:20:00,
2013-05-02 20:25:00,46.1,37.3,30.10,WNW,293,4.5,5.4,71,0.00,,,0.00,WUHU216HW,2013-05-03 01:25:00,
2013-05-02 20:30:00,46.1,37.3,30.10,NE,45,3.1,5.8,71,0.00,,,0.00,WUHU216HW,2013-05-03 01:30:00,
2013-05-02 20:35:00,46.3,37.5,30.11,SW,225,1.3,5.8,71,0.00,,,0.00,WUHU216HW,2013-05-03 01:35:00,
2013-05-02 20:40:00,46.3,37.1,30.11,West,270,4.9,4.9,70,0.00,,,0.00,WUHU216HW,2013-05-03 01:40:00,
2013-05-02 20:45:00,46.3,37.1,30.11,NNE,23,3.4,6.3,70,0.00,,,0.00,WUHU216HW,2013-05-03 01:45:00,
2013-05-02 20:50:00,46.3,37.1,30.11,WNW,293,0.4,8.5,70,0.00,,,0.00,WUHU216HW,2013-05-03 01:50:00,
2013-05-02 20:55:00,46.4,37.3,30.11,SE,135,1.8,8.5,70,0.00,,,0.00,WUHU216HW,2013-05-03 01:55:00,
2013-05-02 21:00:00,46.4,37.3,30.11,NW,315,2.7,7.2,70,0.00,,,0.00,WUHU216HW,2013-05-03 02:00:00,
2013-05-02 21:05:00,46.4,36.9,30.11,SW,225,1.6,6.3,69,0.00,,,0.00,WUHU216HW,2013-05-03 02:05:00,
2013-05-02 21:10:00,46.6,37.0,30.11,ESE,113,2.7,5.1,69,0.00,,,0.00,WUHU216HW,2013-05-03 02:10:00,
2013-05-02 21:15:00,46.6,37.0,30.11,WSW,248,2.0,5.1,69,0.00,,,0.00,WUHU216HW,2013-05-03 02:15:00,
2013-05-02 21:20:00,46.6,37.0,30.12,SW,225,2.2,4.5,69,0.00,,,0.00,WUHU216HW,2013-05-03 02:20:00,
2013-05-02 21:25:00,46.8,37.2,30.12,North,0,3.1,4.5,69,0.00,,,0.00,WUHU216HW,2013-05-03 02:25:00,
2013-05-02 21:30:00,46.8,37.2,30.12,WSW,248,1.8,4.3,69,0.00,,,0.00,WUHU216HW,2013-05-03 02:30:00,
2013-05-02 21:35:00,46.8,36.8,30.12,SSE,158,0.2,5.8,68,0.00,,,0.00,WUHU216HW,2013-05-03 02:35:00,
2013-05-02 21:40:00,46.8,36.8,30.12,WSW,248,2.7,5.8,68,0.00,,,0.00,WUHU216HW,2013-05-03 02:40:00,
2013-05-02 21:45:00,47.0,37.0,30.12,ENE,68,5.6,6.0,68,0.00,,,0.00,WUHU216HW,2013-05-03 02:45:00,
2013-05-02 21:50:00,47.2,37.2,30.13,North,0,3.1,6.0,68,0.00,,,0.00,WUHU216HW,2013-05-03 02:50:00,
2013-05-02 21:55:00,47.2,36.7,30.13,ENE,68,6.3,6.3,67,0.00,,,0.00,WUHU216HW,2013-05-03 02:55:00,
2013-05-02 22:00:00,47.3,36.6,30.13,NW,315,4.7,11.2,66,0.00,,,0.00,WUHU216HW,2013-05-03 03:00:00,
2013-05-02 22:05:00,47.5,36.7,30.13,WNW,293,2.2,11.2,66,0.00,,,0.00,WUHU216HW,2013-05-03 03:05:00,
2013-05-02 22:10:00,47.5,36.7,30.13,NNW,338,3.4,5.4,66,0.00,,,0.00,WUHU216HW,2013-05-03 03:10:00,
2013-05-02 22:15:00,47.5,36.3,30.13,NNW,338,3.8,6.9,65,0.00,,,0.00,WUHU216HW,2013-05-03 03:15:00,
2013-05-02 22:20:00,47.3,36.2,30.13,NW,315,4.7,6.9,65,0.00,,,0.00,WUHU216HW,2013-05-03 03:20:00,
2013-05-02 22:25:00,47.2,36.0,30.13,West,270,4.3,6.3,65,0.00,,,0.00,WUHU216HW,2013-05-03 03:25:00,
2013-05-02 22:30:00,46.8,35.7,30.13,NNE,23,8.5,8.5,65,0.00,,,0.00,WUHU216HW,2013-05-03 03:30:00,
2013-05-02 22:35:00,46.6,35.5,30.13,NE,45,3.4,8.5,65,0.00,,,0.00,WUHU216HW,2013-05-03 03:35:00,
2013-05-02 22:40:00,46.4,35.3,30.13,SW,225,3.8,7.8,65,0.00,,,0.00,WUHU216HW,2013-05-03 03:40:00,
2013-05-02 22:45:00,46.4,35.3,30.13,NE,45,3.6,7.8,65,0.00,,,0.00,WUHU216HW,2013-05-03 03:45:00,
2013-05-02 22:50:00,46.3,35.1,30.13,NNW,338,3.4,5.4,65,0.00,,,0.00,WUHU216HW,2013-05-03 03:50:00,
2013-05-02 22:55:00,46.1,34.9,30.13,West,270,2.5,3.6,65,0.00,,,0.00,WUHU216HW,2013-05-03 03:55:00,
2013-05-02 23:00:00,45.9,34.7,30.13,NW,315,1.6,4.0,65,0.00,,,0.00,WUHU216HW,2013-05-03 04:00:00,
2013-05-02 23:01:00,45.9,35.2,30.13,North,0,3.6,4.0,66,0.00,,,0.00,WUHU216HW,2013-05-03 04:01:00,
2013-05-02 23:06:00,45.7,35.0,30.13,NNE,23,3.4,4.0,66,0.00,,,0.00,WUHU216HW,2013-05-03 04:06:00,
2013-05-02 23:11:00,45.5,34.8,30.13,SSE,158,2.2,3.4,66,0.00,,,0.00,WUHU216HW,2013-05-03 04:11:00,
2013-05-02 23:16:00,45.5,34.8,30.13,South,180,0.4,4.0,66,0.00,,,0.00,WUHU216HW,2013-05-03 04:16:00,
2013-05-02 23:21:00,45.4,34.7,30.14,WNW,293,3.4,4.0,66,0.00,,,0.00,WUHU216HW,2013-05-03 04:21:00,
2013-05-02 23:26:00,45.2,34.8,30.13,NNW,338,3.4,4.7,67,0.00,,,0.00,WUHU216HW,2013-05-03 04:26:00,
2013-05-02 23:31:00,45.2,34.8,30.14,WNW,293,2.5,6.9,67,0.00,,,0.00,WUHU216HW,2013-05-03 04:31:00,
2013-05-02 23:36:00,45.2,34.8,30.13,WNW,293,1.1,6.9,67,0.00,,,0.00,WUHU216HW,2013-05-03 04:36:00,
2013-05-02 23:41:00,45.0,34.7,30.13,NNW,338,3.8,4.7,67,0.00,,,0.00,WUHU216HW,2013-05-03 04:41:00,
2013-05-02 23:46:00,45.0,34.7,30.13,WNW,293,1.8,4.7,67,0.00,,,0.00,WUHU216HW,2013-05-03 04:46:00,
2013-05-02 23:51:00,44.6,34.8,30.13,WSW,248,1.8,4.3,68,0.00,,,0.00,WUHU216HW,2013-05-03 04:51:00,
2013-05-02 23:56:00,44.6,34.8,30.13,North,0,6.5,6.5,68,0.00,,,0.00,WUHU216HW,2013-05-03 04:56:00,